Pratt, KS

10:47 PM CDT on July 23, 2016 (GMT -0500)
Pratt Industrial

Weather History for KPTT - October, 2012

Change the Weather History Date:

Wednesday, October 31, 2012

  Actual Average (KP28) Record (KP28)
Temperature  
Mean Temperature 56 °F 52 °F  
Max Temperature 80 °F 65 °F 89 °F (1938)
Min Temperature 33 °F 40 °F 13 °F (1993)
Degree Days  
Heating Degree Days 8 13  
Month to date heating degree days 237  
Since 1 July heating degree days 269  
Cooling Degree Days 0 0  
Month to date cooling degree days 38  
Year to date cooling degree days 1769  
Growing Degree Days 6 (Base 50)    
Moisture  
Dew Point 34 °F    
Average Humidity 57    
Maximum Humidity 93    
Minimum Humidity 18    
Precipitation  
Precipitation 0.00 in 0.08 in 2.11 in (1998)
Month to date precipitation 2.84  
Year to date precipitation 25.29  
Snow  
Snow 0.00 in 0.00 in - ()
Month to date snowfall 0.0  
Since 1 July snowfall 0.0  
Since 1 September snowfall 0.0  
Snow Depth -    
Sea Level Pressure  
Sea Level Pressure 30.04 in    
Wind  
Wind Speed 4 mph (WNW)    
Max Wind Speed 16 mph    
Max Gust Speed 20 mph    
Visibility 8 miles    
Events Fog , Snow    
T = Trace of Precipitation, MM = Missing Value Source: NWS Daily Summary

Daily Weather History Graph

Daily Weather History Graph

Search for Another Location

Airport or City:

Trip Planner

Search our weather history database for the weather conditions in past years. The results will help you decide how hot, cold, wet, or windy it might be!

Date:

Astronomy

Oct. 31, 2012 Rise Set
Actual Time 7:59 AM CDT 6:36 PM CDT
Civil Twilight 7:32 AM CDT 7:04 PM CDT
Nautical Twilight 7:01 AM CDT 7:34 PM CDT
Astronomical Twilight 6:31 AM CDT 8:05 PM CDT
Moon 7:51 PM CDT (10/31) 9:40 AM CDT (10/31)
Length of Visible Light 11h 31m
Length of Day
10h 37m
Full, 97% of the Moon is Illuminated
Oct 31
Full
Nov 6
Last Quarter
Nov 13
New
Nov 20
First Quarter
Nov 28
Full

Hourly Weather History & Observations

Time (CDT) Temp. Windchill Dew Point Humidity Pressure Visibility Wind Dir Wind Speed Gust Speed Precip Events Conditions
12:35 AM 44.6 °F 43.1 °F 33.8 °F 66% 30.02 in 10.0 mi NE 3.5 mph - N/A   Clear
12:55 AM 39.2 °F 35.0 °F 33.8 °F 81% 30.02 in 7.0 mi North 5.8 mph - N/A   Clear
1:15 AM 37.4 °F 32.8 °F 33.8 °F 87% 30.03 in 7.0 mi North 5.8 mph - N/A   Clear
1:35 AM 37.4 °F - 32.0 °F 81% 30.02 in 10.0 mi Calm Calm - N/A   Clear
1:55 AM 39.2 °F 35.9 °F 33.8 °F 81% 30.03 in 5.0 mi North 4.6 mph - N/A   Haze
2:15 AM 37.4 °F 32.8 °F 33.8 °F 87% 30.04 in 5.0 mi North 5.8 mph - N/A   Haze
2:35 AM 37.4 °F 33.8 °F 33.8 °F 87% 30.04 in 10.0 mi NNE 4.6 mph - N/A   Clear
2:55 AM 37.4 °F - 33.8 °F 87% 30.04 in 7.0 mi Calm Calm - N/A   Clear
3:15 AM 35.6 °F 32.8 °F 32.0 °F 87% 30.05 in 5.0 mi West 3.5 mph - N/A   Haze
3:35 AM 35.6 °F 32.8 °F 32.0 °F 87% 30.05 in 7.0 mi West 3.5 mph - N/A   Clear
3:55 AM 35.6 °F - 32.0 °F 87% 30.05 in 3.0 mi Calm Calm - N/A   Clear
4:15 AM 37.4 °F - 33.8 °F 87% 30.04 in 3.0 mi Calm Calm - N/A   Clear
4:35 AM 37.4 °F - 33.8 °F 87% 30.04 in 2.5 mi Calm Calm - N/A   Clear
4:55 AM 35.6 °F 32.8 °F 32.0 °F 87% 30.04 in 0.8 mi North 3.5 mph - N/A   Haze
5:15 AM 35.6 °F 31.7 °F 32.0 °F 87% 30.05 in 3.0 mi NW 4.6 mph - N/A   Clear
5:35 AM 35.6 °F 31.7 °F 32.0 °F 87% 30.05 in 1.2 mi WNW 4.6 mph - N/A   Mist
5:55 AM 33.8 °F 27.7 °F 32.0 °F 93% 30.05 in 0.5 mi West 6.9 mph - N/A Snow Light Snow
6:15 AM 33.8 °F 29.6 °F 32.0 °F 93% 30.06 in 7.0 mi WNW 4.6 mph - N/A   Clear
6:35 AM 33.8 °F 27.7 °F 32.0 °F 93% 30.06 in 0.5 mi WNW 6.9 mph - N/A Snow Heavy Snow
6:55 AM 35.6 °F 30.7 °F 32.0 °F 87% 30.07 in 0.5 mi WNW 5.8 mph - N/A Snow Light Snow
7:15 AM 33.8 °F 28.6 °F 32.0 °F 93% 30.07 in 0.8 mi WNW 5.8 mph - N/A   Mist
7:35 AM 33.8 °F 28.6 °F 32.0 °F 93% 30.06 in 0.8 mi WNW 5.8 mph - N/A Snow Light Snow
7:55 AM 33.8 °F 30.8 °F 32.0 °F 93% 30.06 in 2.0 mi WNW 3.5 mph - N/A   Clear
8:15 AM 33.8 °F 30.8 °F 32.0 °F 93% 30.07 in 4.0 mi WNW 3.5 mph - N/A   Clear
8:35 AM 35.6 °F 32.8 °F 32.0 °F 87% 30.07 in 0.5 mi West 3.5 mph - N/A Fog Fog
8:55 AM 37.4 °F - 33.8 °F 87% 30.08 in 0.5 mi Calm Calm - N/A Fog Fog
9:15 AM 41.0 °F - 35.6 °F 81% 30.09 in 0.5 mi Calm Calm - N/A   Haze
9:35 AM 44.6 °F - 35.6 °F 71% 30.09 in 7.0 mi Calm Calm - N/A   Clear
9:55 AM 48.2 °F - 37.4 °F 66% 30.09 in 10.0 mi Calm Calm - N/A   Clear
10:15 AM 50.0 °F - 37.4 °F 62% 30.10 in 7.0 mi Calm Calm - N/A   Clear
10:35 AM 53.6 °F - 37.4 °F 54% 30.10 in 7.0 mi Calm Calm - N/A   Clear
10:55 AM 55.4 °F - 37.4 °F 51% 30.10 in 10.0 mi Calm Calm - N/A   Clear
11:15 AM 59.0 °F - 37.4 °F 45% 30.09 in 10.0 mi Calm Calm - N/A   Clear
11:35 AM 62.6 °F - 35.6 °F 37% 30.09 in 10.0 mi Calm Calm - N/A   Clear
11:55 AM 64.4 °F - 35.6 °F 34% 30.09 in 10.0 mi Calm Calm - N/A   Clear
12:15 PM 64.4 °F - 35.6 °F 34% 30.09 in 10.0 mi Calm Calm - N/A   Clear
12:35 PM 66.2 °F - 35.6 °F 32% 30.07 in 10.0 mi SSW 6.9 mph - N/A   Clear
12:55 PM 68.0 °F - 35.6 °F 30% 30.06 in 10.0 mi SW 8.1 mph - N/A   Clear
1:15 PM 69.8 °F - 35.6 °F 28% 30.05 in 10.0 mi SW 6.9 mph - N/A   Clear
1:35 PM 71.6 °F - 35.6 °F 27% 30.03 in 10.0 mi SW 8.1 mph - N/A   Clear
1:55 PM 73.4 °F - 35.6 °F 25% 30.02 in 10.0 mi WSW 9.2 mph - N/A   Clear
2:15 PM 73.4 °F - 35.6 °F 25% 30.02 in 10.0 mi SW 10.4 mph - N/A   Clear
2:55 PM 77.0 °F - 35.6 °F 22% 29.99 in 10.0 mi West 4.6 mph - N/A   Clear
3:15 PM 78.8 °F - 35.6 °F 21% 29.98 in 10.0 mi WSW 9.2 mph - N/A   Clear
3:35 PM 78.8 °F - 33.8 °F 20% 29.98 in 10.0 mi NW 15.0 mph - N/A   Clear
3:55 PM 80.6 °F - 33.8 °F 18% 29.98 in 10.0 mi WNW 16.1 mph 19.6 mph N/A   Clear
4:15 PM 78.8 °F - 32.0 °F 18% 29.98 in 10.0 mi NW 10.4 mph - N/A   Clear
4:35 PM 78.8 °F - 32.0 °F 18% 29.97 in 10.0 mi NNW 11.5 mph 17.3 mph N/A   Clear
4:55 PM 78.8 °F - 32.0 °F 18% 29.98 in 10.0 mi NNW 9.2 mph - N/A   Clear
5:15 PM 77.0 °F - 32.0 °F 19% 29.98 in 10.0 mi NNW 10.4 mph - N/A   Clear
5:35 PM 75.2 °F - 32.0 °F 21% 29.98 in 10.0 mi NNW 6.9 mph - N/A   Clear
5:55 PM 73.4 °F - 32.0 °F 22% 29.98 in 10.0 mi North 8.1 mph - N/A   Clear
6:15 PM 69.8 °F - 32.0 °F 25% 29.98 in 10.0 mi North 6.9 mph - N/A   Clear
6:35 PM 68.0 °F - 32.0 °F 26% 29.99 in 10.0 mi North 6.9 mph - N/A   Clear
6:55 PM 62.6 °F - 32.0 °F 32% 29.99 in 10.0 mi North 6.9 mph - N/A   Clear
7:15 PM 62.6 °F - 32.0 °F 32% 30.00 in 10.0 mi NNE 8.1 mph - N/A   Clear
7:35 PM 62.6 °F - 32.0 °F 32% 30.00 in 10.0 mi NNE 8.1 mph - N/A   Clear
7:55 PM 62.6 °F - 32.0 °F 32% 30.01 in 10.0 mi SE 4.6 mph - N/A   Clear
8:15 PM 59.0 °F - 33.8 °F 39% 30.01 in 10.0 mi South 5.8 mph - N/A   Clear
8:35 PM 59.0 °F - 35.6 °F 42% 30.02 in 10.0 mi South 3.5 mph - N/A   Clear
8:55 PM 55.4 °F - 35.6 °F 47% 30.02 in 10.0 mi Calm Calm - N/A   Clear
9:15 PM 55.4 °F - 35.6 °F 47% 30.02 in 10.0 mi SSW 4.6 mph - N/A   Clear
9:35 PM 50.0 °F - 35.6 °F 58% 30.03 in 10.0 mi SW 4.6 mph - N/A   Clear
9:55 PM 50.0 °F - 37.4 °F 62% 30.03 in 10.0 mi SW 4.6 mph - N/A   Clear
10:15 PM 50.0 °F - 35.6 °F 58% 30.03 in 10.0 mi SSW 4.6 mph - N/A   Clear
10:35 PM 51.8 °F - 35.6 °F 54% 30.03 in 10.0 mi Calm Calm - N/A   Clear
10:55 PM 50.0 °F - 35.6 °F 58% 30.04 in 10.0 mi Calm Calm - N/A   Clear
11:15 PM 51.8 °F - 35.6 °F 54% 30.04 in 10.0 mi ESE 3.5 mph - N/A   Clear
11:35 PM 51.8 °F - 35.6 °F 54% 30.04 in 10.0 mi Calm Calm - N/A   Clear
11:55 PM 50.0 °F - 33.8 °F 54% 30.04 in 10.0 mi Calm Calm - N/A   Clear